Regional Weather Roundup
Issued by NWS Portland, ME

Current Version | Previous Version | Graphics & Text | Print | Product List | Glossary Off
Versions: 1 2 3 4 5 6 7 8 9 10 11 12 13 14 15 16 17 18 19 20 21 22 23 24 25 26 27 28 29 30 31 32 33 34 35 36 37 38 39 40 41 42 43 44 45 46 47 48 49 50
169 ASUS41 KGYX 201110 RWRGYX WEATHER ROUNDUP FOR MAINE AND NEW HAMPSHIRE NATIONAL WEATHER SERVICE GRAY ME 700 AM EDT WED MAR 20 2019 MEZ002-005-006-010-012-015-018-020-021-024-026-027-029-201200- MAINE CITY SKY/WX TMP DP RH WIND PRES REMARKS PORTLAND FAIR 19 11 70 W3 30.41R SANFORD FAIR 12 10 92 CALM 30.41R BAR HARBOR FAIR 14 7 73 CALM 30.41R WISCASSET FAIR 14 11 87 CALM 30.43R ROCKLAND FAIR 14 11 87 SW3 30.41R FRYEBURG FAIR 6 2 83 CALM 30.39R AUGUSTA FAIR 20 3 48 CALM 30.39R WATERVILLE FAIR 15 7 70 CALM 30.36R BANGOR FAIR 14 8 77 CALM 30.39R GREENVILLE N/A 16 -2 45 CALM 30.25S MILLINOCKET FAIR 3 -2 79 CALM 30.35S HOULTON FAIR 0 -7 72 S8 30.30R PRESQUE ISLE FAIR -3 -7 82 CALM 30.29S FRENCHVILLE FAIR 10 -4 53 S8 30.21S CARIBOU FAIR 3 -5 69 CALM 30.26S $$ NHZ002-005-008-009-011-012-014-201200- NEW HAMPSHIRE CITY SKY/WX TMP DP RH WIND PRES REMARKS PORTSMOUTH CLEAR 22 14 70 W3 30.40R ROCHESTER FAIR 17 11 77 NW6 30.39R NASHUA FAIR 18 17 96 CALM 30.41R MANCHESTER FAIR 22 15 75 CALM 30.39S CONCORD FAIR 16 13 88 CALM 30.40S LACONIA FAIR 12 9 87 CALM 30.39R PLYMOUTH FAIR 7 4 89 CALM 30.40R BERLIN FAIR -2 -6 83 CALM 30.33S WHITEFIELD FAIR 5 -1 76 CALM 30.33R JAFFREY FAIR 19 16 88 S6 30.36R KEENE FAIR 17 15 92 S3 30.40R LEBANON FAIR 15 9 76 CALM 30.37S MT WASHINGTON PTCLDY 3 0 85 W38 N/A WCI -24 $$ VTZ005-007-008-201200- VERMONT CITY SKY/WX TMP DP RH WIND PRES REMARKS ST JOHNSBURY N/A 8 4 83 MISG 30.36R MONTPELIER FAIR 8 5 87 S3 30.35S BURLINGTON FAIR 20 12 71 NE3 30.34S $$ MAZ007-012-024-CTZ003-RIZ002-NYZ038-NYZ072-201200- SOUTHERN NEW ENGLAND AND NY CITY SKY/WX TMP DP RH WIND PRES REMARKS BOSTON FAIR 33 19 56 CALM 30.42R WORCESTER FAIR 29 16 58 W8 30.36S NANTUCKET FAIR 29 23 78 NW7 30.42S PROVIDENCE FAIR 27 19 72 CALM 30.43R HARTFORD FAIR 27 20 75 CALM 30.40S ALBANY MOCLDY 32 20 61 SE3 30.37S NEW YORK CITY FAIR 39 30 70 S5 30.39S $$ ANZ081-ANZ082-ANZ150-NHZ014-MEZ023>029-201200- COASTAL MARINE OBSERVATIONS STATION/POSITION TIME TEMP WIND PRES WAVE AIR SEA DIR/SP/G HT/PER (UTC) (F) (DEG/KT/KT) (MB) (FT/S) MOUNT DESERT ROC 1100 30 330/ 9/ 10 1029.7R MATINICUS ROCK 1000 30 20/ 7/ 8 1028.9R ISLE OF SHOALS 1000 33 350/ 3/ 4 1029.1R JEFFREYS LEDGE 1008 39 N/A 1/10 CASHES LEDGE BUO 1050 32 39 1030.3R 1/12 $$ .............KEY.............. WCI - WIND CHILL TC - TEMPERATURE IN CELSIUS VSB - VISIBILITY IN MILES HX - HEAT INDEX FAIR- INDICATES FEW OR NO CLOUDS BELOW 12,000 FT, WITH NO SIGNIFICANT WEATHER AND/OR OBSTRUCTIONS TO VISIBILITY.

USA.gov is the U.S. government's official web portal to all federal, state and local government web resources and services.